Torna al catalogo

STARLINK-36448

AttivoComunicazioniVLEO
NORAD 67354·PAYLOAD·🇺🇸 United States

Lanciato Jan 9, 2026 da Cape Canaveral Space Force Station

Loading…

Prossimi Passaggi (prossime 24 ore)

TLE

AggiornatoSource: CelesTrak SupGP

Epoca: Sep 15, 2026, 03:06 UTC

1 67354C 26003W   26258.12965278 -.00047606  00000+0 -17244-2 0  2581
2 67354  43.0004 237.2737 0001168 268.0002 159.7626 15.27600636    16

Traccia STARLINK-36448 in tempo reale con AllMySat

Download on the App Store